Weather History for Caro, MI

Change the Weather History Date:

Wednesday, January 16, 2013

  Actual Average (KMBS) Record (KMBS)
Temperature  
Mean Temperature 21 °F 22 °F  
Max Temperature 33 °F 29 °F 39 °F (2012)
Min Temperature 9 °F 15 °F -6 °F (2009)
Degree Days  
Heating Degree Days 44    
Month to date heating degree days  
Since 1 July heating degree days  
Cooling Degree Days 0    
Month to date cooling degree days  
Year to date cooling degree days  
Moisture  
Dew Point 18 °F    
Average Humidity 78    
Maximum Humidity 93    
Minimum Humidity 54    
Precipitation  
Precipitation 0.00 in 0.05 in 0.22 in (2002)
Month to date precipitation 0.98  
Year to date precipitation 0.98  
Snow  
Snow 0.00 in - - ()
Month to date snowfall  
Since 1 July snowfall  
Snow Depth -    
Sea Level Pressure  
Sea Level Pressure 29.88 in    
Wind  
Wind Speed 6 mph (SW)    
Max Wind Speed 21 mph    
Max Gust Speed 31 mph    
Visibility 9 miles    
Events Snow    
T = Trace of Precipitation, MM = Missing Value Source: NWS Daily Summary

Daily Weather History Graph

Daily Weather History Graph

Search for Another Location

Airport:

Trip Planner

Search our weather history database for the weather conditions in past years. The results will help you decide how hot, cold, wet, or windy it might be!

Date:

Astronomy

Jan. 16, 2013 Rise Set
Actual Time 8:02 AM EST 5:24 PM EST
Civil Twilight 7:31 AM EST 5:56 PM EST
Nautical Twilight 6:56 AM EST 6:31 PM EST
Astronomical Twilight 6:21 AM EST 7:05 PM EST
Moon 10:27 AM EST (1/16) 11:27 PM EST (1/16)
Length of Visible Light 10h 25m
Length of Day
9h 21m
Waxing Crescent, 28% of the Moon is Illuminated
Jan 16
Waxing Crescent
Jan 18
First Quarter
Jan 26
Full
Feb 3
Last Quarter
Feb 10
New

Hourly Weather History & Observations

Time (EST) Temp. Windchill Dew Point Humidity Pressure Visibility Wind Dir Wind Speed Gust Speed Precip Events Conditions
12:15 AM 12.4 °F - 10.0 °F 90% 30.12 in 7.0 mi Calm Calm - N/A   Clear
12:34 AM 13.6 °F - 11.3 °F 90% 30.11 in 10.0 mi Calm Calm - N/A   Clear
1:15 AM 12.0 °F - 9.7 °F 90% 30.09 in 10.0 mi Calm Calm - N/A   Clear
1:34 AM 12.2 °F - 10.0 °F 91% 30.08 in 7.0 mi Calm Calm - N/A   Scattered Clouds
1:54 AM 12.2 °F - 10.0 °F 91% 30.07 in 7.0 mi Calm Calm - N/A   Scattered Clouds
2:15 AM 11.8 °F - 9.5 °F 90% 30.07 in 10.0 mi Calm Calm - N/A   Scattered Clouds
2:34 AM 12.4 °F - 10.2 °F 91% 30.07 in 10.0 mi Calm Calm - N/A   Scattered Clouds
2:54 AM 12.4 °F - 10.0 °F 90% 30.06 in 10.0 mi Calm Calm - N/A   Clear
3:14 AM 10.9 °F - 8.4 °F 90% 30.05 in 10.0 mi Calm Calm - N/A   Clear
3:34 AM 12.2 °F - 9.5 °F 89% 30.04 in 10.0 mi Calm Calm - N/A   Scattered Clouds
3:55 AM 12.6 °F - 10.0 °F 90% 30.04 in 10.0 mi Calm Calm - N/A   Scattered Clouds
4:13 AM 10.4 °F - 7.7 °F 89% 30.03 in 10.0 mi Calm Calm - N/A   Scattered Clouds
4:35 AM 11.1 °F - 8.4 °F 89% 30.02 in 10.0 mi Calm Calm - N/A   Clear
4:54 AM 10.0 °F - 7.5 °F 90% 30.01 in 10.0 mi Calm Calm - N/A   Clear
5:14 AM 10.6 °F - 8.1 °F 90% 30.00 in 10.0 mi Calm Calm - N/A   Clear
5:35 AM 9.5 °F 3.0 °F 7.0 °F 90% 29.99 in 10.0 mi SSW 3.5 mph - N/A   Clear
5:54 AM 11.1 °F - 8.4 °F 89% 29.99 in 10.0 mi Calm Calm - N/A   Clear
6:14 AM 13.1 °F - 10.9 °F 91% 29.97 in 7.0 mi Calm Calm - N/A   Clear
6:35 AM 12.6 °F - 10.4 °F 91% 29.97 in 7.0 mi Calm Calm - N/A   Clear
7:35 AM 14.7 °F - 12.6 °F 91% 29.93 in 7.0 mi Calm Calm - N/A   Clear
7:54 AM 15.4 °F - 13.3 °F 91% 29.92 in 7.0 mi Calm Calm - N/A   Clear
8:15 AM 14.9 °F - 12.9 °F 92% 29.91 in 5.0 mi Calm Calm - N/A   Clear
8:35 AM 14.4 °F 8.6 °F 12.4 °F 92% 29.91 in 7.0 mi SSW 3.5 mph - N/A   Clear
8:54 AM 17.4 °F 9.1 °F 15.4 °F 92% 29.91 in 7.0 mi SSW 5.8 mph - N/A   Clear
9:15 AM 19.8 °F 10.8 °F 17.8 °F 92% 29.91 in 7.0 mi SSW 6.9 mph - N/A   Clear
9:34 AM 22.3 °F 13.0 °F 19.6 °F 89% 29.91 in 10.0 mi SSW 8.1 mph - N/A   Clear
9:55 AM 23.9 °F 15.0 °F 20.3 °F 86% 29.90 in 10.0 mi SSW 8.1 mph - N/A   Clear
10:15 AM 25.2 °F 15.7 °F 20.1 °F 81% 29.88 in 10.0 mi SSW 9.2 mph - N/A   Clear
10:34 AM 26.4 °F 16.0 °F 20.1 °F 77% 29.87 in 10.0 mi SSW 11.5 mph - N/A   Clear
10:55 AM 27.9 °F 16.8 °F 19.0 °F 69% 29.86 in 10.0 mi SSW 13.8 mph - N/A   Clear
11:14 AM 28.8 °F 18.4 °F 18.3 °F 65% 29.84 in 10.0 mi SSW 12.7 mph 20.7 mph N/A   Clear
11:34 AM 30.0 °F 18.7 °F 20.3 °F 67% 29.82 in 10.0 mi SSW 16.1 mph 20.7 mph N/A   Clear
11:55 AM 30.6 °F 21.8 °F 20.7 °F 67% 29.81 in 10.0 mi SSW 10.4 mph 19.6 mph N/A   Clear
12:14 PM 31.1 °F 18.9 °F 20.8 °F 66% 29.79 in 10.0 mi SW 19.6 mph 25.3 mph N/A   Clear
12:35 PM 31.6 °F 19.3 °F 20.7 °F 64% 29.78 in 10.0 mi SSW 20.7 mph 25.3 mph N/A   Clear
12:55 PM 32.0 °F 20.1 °F 19.8 °F 61% 29.77 in 10.0 mi SSW 19.6 mph 26.5 mph N/A   Clear
1:14 PM 32.0 °F 19.8 °F 18.5 °F 58% 29.76 in 10.0 mi SW 20.7 mph 27.6 mph N/A   Scattered Clouds
1:35 PM 32.4 °F 20.9 °F 18.7 °F 57% 29.74 in 10.0 mi SSW 18.4 mph 25.3 mph N/A   Scattered Clouds
1:55 PM 32.0 °F 20.5 °F 18.3 °F 57% 29.73 in 10.0 mi SW 18.4 mph 27.6 mph N/A   Mostly Cloudy
2:14 PM 32.5 °F 21.5 °F 19.0 °F 58% 29.73 in 10.0 mi SW 17.3 mph 26.5 mph N/A   Overcast
2:35 PM 32.2 °F 21.1 °F 19.0 °F 58% 29.72 in 10.0 mi SSW 17.3 mph 25.3 mph N/A   Mostly Cloudy
3:14 PM 32.9 °F 21.3 °F 18.3 °F 55% 29.72 in 10.0 mi SW 19.6 mph 29.9 mph N/A   Overcast
3:35 PM 32.9 °F 21.6 °F 19.0 °F 57% 29.72 in 10.0 mi SW 18.4 mph 26.5 mph N/A   Mostly Cloudy
3:54 PM 33.4 °F 23.1 °F 18.1 °F 54% 29.72 in 10.0 mi SW 16.1 mph 31.1 mph N/A   Scattered Clouds
4:14 PM 33.4 °F 22.0 °F 18.5 °F 54% 29.72 in 10.0 mi SW 19.6 mph 25.3 mph N/A   Scattered Clouds
4:35 PM 33.4 °F 21.7 °F 18.1 °F 54% 29.74 in 10.0 mi SW 20.7 mph 26.5 mph N/A   Mostly Cloudy
4:54 PM 33.3 °F 22.8 °F 18.1 °F 54% 29.75 in 10.0 mi SW 16.1 mph 24.2 mph N/A   Overcast
5:15 PM 33.1 °F 22.6 °F 18.5 °F 55% 29.75 in 10.0 mi SW 16.1 mph 21.9 mph N/A   Overcast
5:35 PM 32.9 °F 22.8 °F 18.3 °F 55% 29.76 in 10.0 mi SW 15.0 mph 25.3 mph N/A   Overcast
5:54 PM 32.9 °F 22.8 °F 18.1 °F 55% 29.77 in 10.0 mi WSW 15.0 mph 23.0 mph N/A   Overcast
6:15 PM 32.9 °F 22.8 °F 19.0 °F 57% 29.78 in 10.0 mi WSW 15.0 mph 23.0 mph N/A   Overcast
6:54 PM 32.9 °F 23.2 °F 20.5 °F 60% 29.80 in 10.0 mi WSW 13.8 mph 23.0 mph N/A   Overcast
7:15 PM 32.9 °F 22.0 °F 22.1 °F 65% 29.81 in 10.0 mi WSW 17.3 mph 27.6 mph N/A   Overcast
7:34 PM 32.5 °F 21.9 °F 23.7 °F 70% 29.82 in 10.0 mi WSW 16.1 mph 26.5 mph N/A   Overcast
7:54 PM 32.2 °F 22.7 °F 25.3 °F 76% 29.82 in 7.0 mi WSW 12.7 mph 20.7 mph N/A   Overcast
8:15 PM 32.0 °F 23.6 °F 27.0 °F 82% 29.82 in 7.0 mi WSW 10.4 mph 18.4 mph N/A   Overcast
8:34 PM 32.0 °F 22.5 °F 27.5 °F 83% 29.82 in 5.0 mi WSW 12.7 mph 18.4 mph N/A   Overcast
8:54 PM 32.0 °F 22.5 °F 28.2 °F 86% 29.83 in 5.0 mi WSW 12.7 mph 16.1 mph N/A   Overcast
9:15 PM 32.0 °F 23.6 °F 28.9 °F 88% 29.84 in 4.0 mi WSW 10.4 mph - N/A   Overcast
9:55 PM 32.0 °F 23.6 °F 29.8 °F 92% 29.86 in 5.0 mi WSW 10.4 mph - N/A   Overcast
10:15 PM 32.0 °F 23.0 °F 30.2 °F 93% 29.87 in 5.0 mi WSW 11.5 mph - N/A   Overcast
10:34 PM 32.0 °F 24.2 °F 30.2 °F 93% 29.87 in 5.0 mi WSW 9.2 mph - N/A   Overcast
10:55 PM 32.0 °F 25.6 °F 30.0 °F 92% 29.87 in 7.0 mi WSW 6.9 mph - N/A   Overcast
11:15 PM 32.0 °F 24.2 °F 30.2 °F 93% 29.87 in 5.0 mi WSW 9.2 mph - N/A Snow Light Snow
11:34 PM 32.4 °F 24.6 °F 29.7 °F 90% 29.88 in 7.0 mi West 9.2 mph - N/A Snow Light Snow
11:55 PM 32.2 °F 23.2 °F 29.3 °F 89% 29.90 in 7.0 mi West 11.5 mph - N/A   Overcast